Dewpoint
67 68 69 69 70 69 68 68 68 68 68 69 69 69 69 69 70 72 73 73 72 73 73 73 72 72 72 72 72 72 70 70 68 68 69 71 70 70 69 70 69 70 72
67 69 69 70 70 69 68 70 69 68 68 67 68 68 69 69 69 71 73 73 72 72 72 72 72 72 72 72 72 71 71 70 70 68 68 70 69 69 69 69 67 67 70
68 69 70 70 70 69 68 69 68 67 67 65 66 67 68 69 68 69 72 73 73 73 73 72 72 72 71 72 72 71 70 71 70 69 69 68 69 69 70 70 70 71 71
68 69 71 71 70 70 69 69 68 68 67 66 66 67 68 68 67 69 71 73 73 73 73 72 71 71 70 71 70 70 69 68 69 68 68 68 68 68 69 69 68 68 68
70 70 71 71 71 70 69 69 69 68 68 67 66 66 66 66 66 70 73 73 72 72 71 71 71 71 69 69 69 69 68 67 67 67 67 67 67 67 68 68 68 68 69
70 70 71 72 72 71 70 70 70 69 68 68 67 67 67 67 68 69 72 72 71 70 70 69 68 68 67 65 66 68 68 68 68 67 67 67 67 68 68 68 68 68 67
69 70 72 72 72 72 71 70 70 69 69 68 69 69 70 72 69 68 70 72 71 70 70 69 65 61 61 61 61 66 66 65 67 68 67 66 67 67 69 68 67 67 67
69 70 72 72 72 73 72 72 71 70 70 69 70 71 72 73 67 67 69 72 70 69 69 69 65 62 63 61 62 63 66 64 64 67 68 67 68 69 69 69 68 68 68
69 70 71 72 72 72 72 72 72 72 71 71 72 72 72 73 65 65 69 71 69 69 69 68 63 62 62 61 61 61 61 64 61 64 64 64 65 65 67 68 66 66 65
69 70 71 71 71 72 72 72 72 73 73 73 73 73 70 73 63 63 68 69 68 67 67 65 61 61 60 59 60 59 59 59 61 64 63 63 63 64 65 68 68 66 64
68 70 70 71 71 71 72 72 73 72 73 73 73 74 73 72 67 61 63 70 68 66 65 62 60 59 57 56 58 60 60 61 62 61 60 60 59 61 62 63 65 67 64
69 69 70 71 70 71 72 72 73 73 72 72 73 72 72 70 63 60 61 65 65 66 64 62 60 56 55 56 58 58 59 59 59 58 57 57 56 57 57 58 62 61 62
68 68 69 71 71 72 71 72 72 73 72 72 72 71 70 68 65 60 59 61 62 67 65 60 57 53 54 56 56 56 57 58 58 56 56 55 55 54 57 56 57 57 57
68 68 68 69 71 72 72 72 72 72 72 72 71 71 70 68 65 62 61 63 62 64 59 58 58 57 57 57 56 56 56 57 56 55 55 54 54 53 53 53 50 51 50
67 68 68 69 69 71 72 72 73 74 71 72 72 71 69 67 66 60 59 63 65 61 58 58 58 58 58 57 55 55 55 55 54 54 53 52 52 51 51 52 50 47 48
68 68 69 70 71 72 68 66 53 55 56 57 59 68 71 63 55 51 51 52 52 51 56 56 56 57 57 56 54 54 53 54 54 53 52 52 50 49 51 50 49 46 45
69 70 70 71 73 74 70 70 69 63 52 52 52 56 57 59 50 48 49 49 49 52 58 56 56 56 57 56 55 53 52 52 54 52 52 51 48 49 46 46 45 43 43
71 63 73 74 74 73 72 72 73 70 71 70 58 56 51 50 48 48 49 50 52 54 56 56 56 56 56 56 55 53 52 51 52 51 51 50 46 44 42 42 41 42 43
72 73 74 74 73 71 72 73 73 71 70 71 67 55 49 47 46 45 47 59 56 55 56 56 57 56 56 56 55 54 53 51 50 49 49 47 44 42 42 41 40 41 42
72 67 71 73 72 72 71 71 71 70 70 70 70 70 58 58 58 56 53 59 61 58 58 57 60 60 58 55 55 54 53 52 51 49 46 44 42 41 40 40 39 40 40
71 71 69 71 70 71 70 70 70 70 70 70 71 66 55 65 64 61 58 57 60 60 59 59 60 60 58 56 54 52 52 51 50 46 43 41 40 38 40 39 39 40 40
71 72 71 71 70 70 70 69 68 68 68 68 68 63 49 63 65 65 62 61 61 62 62 61 60 58 58 54 53 52 51 50 48 43 41 39 38 38 36 36 38 40 40
70 70 70 70 69 65 67 68 67 67 67 66 66 64 60 59 60 61 63 61 61 62 61 60 59 57 58 53 53 52 51 49 47 44 41 39 38 37 35 36 39 40 38
69 69 68 68 67 67 68 67 67 61 66 66 65 63 62 59 58 58 60 61 60 60 59 59 58 56 53 52 52 51 51 49 46 43 41 39 38 36 36 37 39 40 38
69 68 68 67 67 66 67 66 65 65 64 63 63 61 60 59 58 59 59 59 59 59 58 57 57 56 53 52 50 50 45 37 44 39 40 39 37 38 36 37 39 38 37
69 68 68 67 67 66 66 65 65 65 64 64 62 61 59 58 58 59 59 59 58 58 58 58 57 56 54 52 50 45 34 34 37 35 38 38 36 35 36 39 40 36 36
Lifted_Index
-3 -3 -4 -4 -5 -5 -5 -4 -4 -3 -3 -2 -2 -2 -2 -3 -3 -4 -5 -5 -5 -5 -5 -5 -4 -4 -4 -4 -4 -4 -3 -3 -3 -2 -2 -2 -2 -2 -1 -1 -1 -1 -1
-3 -3 -4 -4 -5 -5 -5 -5 -4 -4 -3 -2 -2 -1 -2 -3 -3 -4 -5 -5 -5 -5 -5 -5 -4 -4 -4 -3 -3 -3 -3 -2 -2 -2 -2 -1 -2 -2 -2 -1 -1 -1 -1
-3 -3 -4 -4 -5 -5 -5 -5 -4 -4 -3 -2 -1 -0 -1 -2 -3 -4 -5 -6 -6 -6 -5 -5 -4 -4 -3 -3 -3 -3 -2 -1 -1 -1 -1 -1 -1 -1 -1 -1 -1 -1 -1
-4 -4 -4 -5 -5 -5 -5 -5 -4 -4 -3 -2 -1 -0 -1 -3 -4 -5 -5 -6 -6 -6 -6 -5 -4 -3 -3 -3 -2 -2 -1 -0 -0 -0 -0 -0 -0 -1 -1 -1 -0 -0 -0
-4 -4 -5 -5 -5 -5 -5 -5 -4 -4 -4 -3 -2 -1 -2 -3 -4 -5 -6 -6 -6 -6 -5 -4 -3 -3 -2 -2 -2 -1 -0 0 0 0 0 0 0 -0 -0 -0 0 0 0
-5 -5 -5 -5 -5 -5 -5 -5 -5 -5 -4 -4 -4 -3 -3 -4 -5 -6 -6 -6 -6 -5 -4 -3 -2 -1 -0 -0 0 0 0 0 0 -0 0 0 0 0 0 0 1 1 1
-5 -5 -5 -5 -5 -5 -5 -6 -6 -6 -5 -5 -5 -5 -5 -5 -6 -6 -6 -6 -6 -5 -3 -2 -0 1 2 2 3 2 1 1 0 -0 -0 0 0 0 0 1 1 1 1
-5 -5 -6 -6 -6 -6 -6 -6 -6 -6 -7 -6 -6 -6 -6 -6 -7 -7 -7 -6 -6 -4 -2 -1 0 2 2 3 4 4 4 2 1 0 -0 0 0 1 1 1 1 1 2
-6 -6 -6 -6 -6 -6 -6 -6 -7 -7 -7 -7 -7 -7 -7 -7 -7 -7 -7 -7 -6 -4 -2 -1 0 1 1 2 4 6 6 5 3 2 1 1 1 1 1 1 1 2 2
-6 -6 -6 -6 -7 -7 -7 -7 -7 -7 -7 -7 -7 -7 -7 -7 -8 -7 -7 -6 -5 -4 -3 -1 -0 0 1 2 5 7 8 7 5 4 3 3 3 2 2 2 2 2 2
-6 -6 -6 -6 -7 -7 -7 -7 -7 -7 -7 -7 -7 -7 -8 -8 -8 -7 -7 -6 -5 -4 -3 -2 -1 -0 1 3 7 8 8 7 6 5 4 4 4 4 4 4 4 4 4
-5 -6 -6 -6 -7 -7 -7 -7 -7 -8 -8 -8 -8 -8 -8 -8 -8 -7 -7 -6 -5 -4 -3 -2 -2 -1 1 4 8 9 8 7 6 5 5 5 5 5 5 6 6 6 6
-5 -5 -5 -6 -6 -7 -7 -7 -8 -8 -8 -8 -8 -8 -8 -8 -8 -7 -7 -6 -5 -4 -3 -3 -2 -1 1 4 8 9 9 7 7 7 7 7 7 7 8 9 9 9 9
-5 -5 -5 -6 -6 -7 -7 -7 -8 -8 -8 -8 -8 -8 -8 -8 -8 -8 -7 -6 -5 -4 -3 -2 -2 -1 1 4 8 10 10 9 9 9 9 9 10 11 11 12 12 12 12
-5 -5 -5 -6 -6 -7 -7 -8 -8 -8 -8 -8 -8 -8 -8 -8 -8 -7 -7 -6 -5 -4 -3 -2 -1 -1 -0 3 7 10 11 11 11 11 11 12 12 13 13 14 15 15 15
-5 -5 -6 -6 -7 -8 -8 -8 -8 -8 -9 -8 -8 -8 -8 -8 -8 -7 -7 -6 -6 -5 -3 -2 -1 -1 -0 1 5 8 11 12 12 12 13 13 14 14 14 15 16 16 16
-6 -6 -7 -7 -8 -8 -8 -8 -8 -8 -9 -9 -9 -9 -9 -8 -8 -7 -7 -7 -6 -5 -3 -2 -1 -1 -1 0 3 7 10 11 12 13 13 14 15 15 15 16 16 16 16
-7 -7 -8 -8 -9 -9 -8 -8 -8 -8 -9 -9 -9 -9 -9 -8 -8 -8 -7 -6 -6 -5 -3 -2 -1 -1 -1 -0 2 6 8 10 12 13 13 14 15 16 16 16 17 16 16
-8 -8 -8 -9 -9 -9 -8 -8 -9 -9 -9 -9 -9 -9 -9 -9 -8 -8 -7 -6 -5 -4 -3 -2 -1 -1 -1 -0 2 5 8 10 12 13 14 14 15 16 16 17 17 17 17
-8 -9 -9 -9 -9 -9 -9 -9 -9 -9 -9 -9 -9 -9 -9 -8 -8 -7 -6 -5 -5 -4 -3 -2 -1 -1 -1 -0 2 5 7 9 12 13 14 14 15 16 17 17 17 17 17
-8 -9 -9 -9 -9 -9 -9 -9 -9 -9 -9 -8 -8 -8 -8 -8 -7 -7 -6 -5 -4 -3 -3 -2 -1 -1 -1 -0 2 4 7 9 11 13 14 14 15 16 17 17 18 18 18
-8 -9 -9 -9 -9 -9 -9 -9 -9 -9 -8 -7 -7 -7 -6 -6 -5 -5 -4 -3 -2 -2 -2 -2 -1 -1 -1 0 2 4 7 9 11 13 14 14 15 16 17 18 18 18 18
-9 -9 -9 -9 -9 -9 -8 -8 -8 -7 -6 -6 -6 -5 -4 -3 -2 -1 -1 0 1 0 -1 -1 -1 -1 -0 1 4 6 7 9 11 13 13 14 15 16 17 17 18 18 18
-9 -9 -8 -8 -8 -8 -7 -6 -6 -5 -4 -4 -4 -3 -2 -1 -0 0 1 2 3 3 1 0 -0 -0 0 2 4 6 8 10 11 12 13 14 15 16 17 17 18 18 18
-8 -8 -8 -8 -8 -7 -7 -6 -5 -4 -3 -2 -2 -2 -2 -1 -0 0 1 1 3 3 2 1 0 0 1 2 4 6 8 9 11 12 13 15 16 17 17 18 18 18 18
-8 -8 -8 -8 -8 -7 -7 -6 -5 -4 -2 -2 -2 -2 -2 -1 -0 -0 0 1 2 3 2 1 1 1 2 2 4 6 8 9 11 12 14 15 16 17 18 18 18 18 18